FW7576 Weather Reports


time (UTC)temp
F
wind
direction
speed
knots
gust
knots
rain 1hr
in
rain 24hr
in
rain mn
in
humidity
%
barometer
mb
20260502213035 52 172 3.5 9.6 0.00 0.00 0.00 46 1016.0
20260502211538 52 118 3.5 9.6 0.00 0.00 0.00 47 1016.2
20260502210040 51 174 3.5 8.7 0.00 0.00 0.00 49 1016.3
20260502204538 51 136 4.3 10.4 0.00 0.00 0.00 48 1016.4
20260502203036 52 134 4.3 7.8 0.00 0.00 0.00 48 1016.5
20260502201542 51 122 3.5 7.8 0.00 0.00 0.00 51 1016.7
20260502200039 51 132 4.3 8.7 0.00 0.00 0.00 49 1017.0
20260502194541 51 142 3.5 8.7 0.00 0.00 0.00 47 1017.2
20260502193044 50 141 2.6 8.7 0.00 0.00 0.00 46 1017.5
20260502191544 50 97 3.5 9.6 0.00 0.00 0.00 47 1017.5
20260502190037 50 129 4.3 10.4 0.00 0.00 0.00 46 1017.7
20260502184547 52 115 4.3 10.4 0.00 0.00 0.00 45 1017.8
20260502183040 51 82 5.2 14.8 0.00 0.00 0.00 45 1017.9
20260502181540 53 29 2.6 8.7 0.00 0.00 0.00 40 1017.9
20260502163037 50 50 1.7 9.6 0.00 0.00 0.00 42 1018.9
20260502161536 50 236 0.9 8.7 0.00 0.00 0.00 43 1019.0
20260502151538 47 280 3.5 8.7 0.00 0.00 0.00 50 1019.5
20260502123048 37 256 2.6 5.2 0.00 0.00 0.00 82 1019.8
20260502121544 36 295 1.7 5.2 0.00 0.00 0.00 84 1019.8
20260502114539 34 276 0.0 1.7 0.00 0.00 0.00 86 1019.7
20260502113039 32 0 0.0 2.6 0.00 0.00 0.00 87 1019.7
20260502111539 31 248 0.0 0.9 0.00 0.00 0.00 88 1019.5
20260502110040 30 0 0.0 0.9 0.00 0.00 0.00 89 1019.6
20260502104540 30 0 0.0 0.9 0.00 0.00 0.00 89 1019.6
20260502103052 29 0 0.0 0.0 0.00 0.00 0.00 89 1019.5
20260502101538 29 0 0.0 0.0 0.00 0.00 0.00 88 1019.5
20260502070040 31 85 0.0 0.9 0.00 0.00 0.00 86 1019.4
20260502064539 30 84 0.0 0.9 0.00 0.00 0.00 87 1019.5
20260502063039 30 0 0.0 0.0 0.00 0.00 0.00 86 1019.6
20260502061537 30 0 0.0 0.0 0.00 0.00 0.00 84 1019.7
20260502060040 30 84 0.0 0.9 0.00 0.00 0.00 85 1019.9
20260502054543 30 0 0.0 0.0 0.00 0.00 0.00 85 1019.8
20260502053039 30 0 0.0 0.0 0.00 0.00 0.00 84 1019.8
20260502051535 30 0 0.0 0.0 0.00 0.00 0.00 83 1019.7
20260502050036 31 0 0.0 0.0 0.00 0.00 0.00 83 1019.8
20260502044536 31 0 0.0 0.0 0.00 0.00 0.00 82 1019.8
20260502043040 31 0 0.0 0.0 0.00 0.00 0.00 81 1019.7
20260502041540 31 0 0.0 0.9 0.00 0.00 0.00 81 1019.6
20260502040039 32 0 0.0 0.9 0.00 0.00 0.00 80 1019.4
20260502034536 32 0 0.0 0.0 0.00 0.00 0.00 79 1019.6
20260502033043 32 0 0.0 0.0 0.00 0.00 0.00 77 1019.5
20260502031539 33 0 0.0 0.0 0.00 0.00 0.00 75 1019.4
20260502030040 33 0 0.0 0.0 0.00 0.00 0.00 75 1019.4
20260502024537 34 0 0.0 0.0 0.00 0.00 0.00 73 1019.4
20260502023047 35 0 0.0 0.0 0.00 0.00 0.00 71 1019.4
20260502021541 35 0 0.0 0.0 0.00 0.00 0.00 70 1019.4
20260502020039 36 0 0.0 0.0 0.00 0.00 0.00 67 1019.2
20260502014544 37 0 0.0 0.9 0.00 0.00 0.00 66 1018.9
20260502013044 38 0 0.0 0.0 0.00 0.00 0.00 64 1019.0
20260502011536 38 90 0.0 0.9 0.00 0.00 0.00 64 1018.9
20260502010047 39 0 0.0 1.7 0.00 0.00 0.00 63 1018.7
20260502004553 40 0 0.9 1.7 0.00 0.00 0.00 62 1018.7
20260502003037 40 92 1.7 4.3 0.00 0.00 0.00 60 1018.6
20260502001536 41 58 0.9 5.2 0.00 0.00 0.00 59 1018.6
20260502000052 42 119 0.9 5.2 0.00 0.00 0.00 58 1018.5
20260501234540 42 117 1.7 4.3 0.00 0.00 0.00 57 1018.5
20260501233041 42 157 1.7 3.5 0.00 0.00 0.00 57 1018.6
20260501231540 42 67 1.7 2.6 0.00 0.00 0.00 56 1018.6
20260501230036 41 0 0.9 4.3 0.00 0.00 0.00 59 1018.6
20260501224539 41 86 0.9 3.5 0.00 0.00 0.00 58 1018.6
20260501223040 41 57 0.0 3.5 0.00 0.00 0.00 61 1018.6
20260501221538 40 26 0.9 3.5 0.00 0.00 0.00 62 1018.6
20260501220042 39 91 0.9 3.5 0.00 0.00 0.00 62 1018.6
20260501214537 39 76 1.7 5.2 0.00 0.00 0.00 61 1018.5